sat.trackr.live / text

‹ back to catalog

STARLINK-11431 [DTC]

NORAD 62890 · 2025-024M

PAYLOAD ACTIVE UNKNOWN

§ Identity

Operator
Country
US
Launch date
2025-02-04
Launch site
AFETR
Launch vehicle
Mass (kg)
RCS (m²)

Purposes: comms

External: N2YO · Heavens-Above · Gunter

§ Orbital elements

Epoch: 2026-05-25T04:37:52.690080Z

Period
91.67 min
Inclination
42.9999°
Eccentricity
0.0001782
Mean motion
15.70902105 rev/d
Perigee alt
355.1 km
Apogee alt
357.5 km
Semi-major
6,734.5 km
B*
1.6275e-3
RAAN
80.7567°
Arg perigee
255.5020°
Mean anomaly
104.5650°
Rev number
7,549

§ Raw data

STARLINK-11431 [DTC]1 62890U 25024M   26145.19297095  .00214416  00000+0  16275-2 0  99982 62890  42.9999  80.7567 0001782 255.5020 104.5650 15.70902105 75495

JSON: /api/v1/satellites/62890 · /tle

For live sub-satellite position, see the globe view (requires WebGL).

§ Visibility from observer

Set your observer location to see the next 7 days of passes ≥ 10°. The values pass through the URL so the page stays shareable.

No JS? Fill the form by hand. The geolocation button needs JavaScript.